Fairbanks Ft. Wainwright, AK

3:47 PM AKST on December 16, 2017 (GMT -0900)
Ladd Army Air Field

Weather History for PAFB - May, 2013

Change the Weather History Date:

Sunday, May 19, 2013

  Actual Average Record
Temperature  
Mean Temperature 34 °F -  
Max Temperature 45 °F 59 °F 73 °F (2015)
Min Temperature 24 °F 40 °F 24 °F (2013)
Degree Days  
Heating Degree Days 30    
Moisture  
Dew Point 8 °F    
Average Humidity 34    
Maximum Humidity 57    
Minimum Humidity 23    
Precipitation  
Precipitation 0.00 in - - ()
Sea Level Pressure  
Sea Level Pressure 30.46 in    
Wind  
Wind Speed 7 mph (West)    
Max Wind Speed 12 mph    
Max Gust Speed 21 mph    
Visibility 10 miles    
Events      
Averages and records for this station are not official NWS values.
T = Trace of Precipitation, MM = Missing Value Source: NWS Daily Summary

Daily Weather History Graph

Daily Weather History Graph

Search for Another Location

Airport or City:

Trip Planner

Search our weather history database for the weather conditions in past years. The results will help you decide how hot, cold, wet, or windy it might be!

Date:

Astronomy

May. 19, 2013 Rise Set
Actual Time 4:12 AM AKDT 11:24 PM AKDT
Civil Twilight 2:19 AM AKDT 1:14 AM AKDT
Nautical Twilight Sun does not rise Sun does not rise
Astronomical Twilight Sun does not rise Sun does not rise
Moon 3:18 PM AKDT (5/19) 3:10 AM AKDT (5/19)
Length of Visible Light 22h 55m
Length of Day
19h 12m
Waxing Gibbous, 66% of the Moon is Illuminated
May 19
Waxing Gibbous
May 24
Full
May 31
Last Quarter
Jun 8
New
Jun 16
First Quarter

Hourly Weather History & Observations

Time (AKDT) Temp. Windchill Dew Point Humidity Pressure Visibility Wind Dir Wind Speed Gust Speed Precip Events Conditions
12:56 AM 27.0 °F 19.5 °F 10.0 °F 49% 30.25 in 10.0 mi West 6.9 mph - N/A   Clear
1:56 AM 28.0 °F 21.7 °F 8.1 °F 43% 30.28 in 10.0 mi WNW 5.8 mph - N/A   Clear
2:56 AM 27.0 °F 19.5 °F 8.1 °F 45% 30.30 in 10.0 mi WNW 6.9 mph - N/A   Clear
3:56 AM 25.0 °F 17.1 °F 9.0 °F 51% 30.34 in 10.0 mi West 6.9 mph - N/A   Clear
4:56 AM 24.1 °F 18.2 °F 8.1 °F 51% 30.36 in 10.0 mi West 4.6 mph - N/A   Clear
5:56 AM 24.1 °F 17.0 °F 10.9 °F 57% 30.39 in 10.0 mi West 5.8 mph - N/A   Clear
6:56 AM 26.1 °F 20.5 °F 7.0 °F 44% 30.41 in 10.0 mi West 4.6 mph - N/A   Clear
7:56 AM 28.9 °F 20.4 °F 3.9 °F 35% 30.43 in 10.0 mi West 9.2 mph - N/A   Clear
8:56 AM 30.9 °F 21.7 °F 5.0 °F 33% 30.46 in 10.0 mi West 11.5 mph - N/A   Clear
9:56 AM 33.1 °F 24.9 °F 3.9 °F 29% 30.48 in 10.0 mi West 10.4 mph - N/A   Clear
10:56 AM 35.1 °F 29.3 °F 3.0 °F 26% 30.48 in 10.0 mi West 6.9 mph - N/A   Clear
11:56 AM 37.0 °F 29.8 °F 5.0 °F 26% 30.50 in 10.0 mi WNW 10.4 mph 16.1 mph N/A   Clear
12:56 PM 39.0 °F 34.0 °F 5.0 °F 24% 30.51 in 10.0 mi WNW 6.9 mph 16.1 mph N/A   Clear
1:56 PM 41.0 °F 34.3 °F 6.1 °F 24% 30.51 in 10.0 mi West 11.5 mph 16.1 mph N/A   Clear
2:56 PM 42.1 °F 35.7 °F 8.1 °F 25% 30.52 in 10.0 mi West 11.5 mph 16.1 mph N/A   Clear
3:56 PM 42.1 °F 37.1 °F 8.1 °F 25% 30.53 in 10.0 mi WNW 8.1 mph 20.7 mph N/A   Clear
4:56 PM 44.1 °F 38.6 °F 8.1 °F 23% 30.53 in 10.0 mi SW 10.4 mph - N/A   Clear
5:56 PM 44.1 °F 41.5 °F 8.1 °F 23% 30.53 in 10.0 mi SSW 4.6 mph - N/A   Clear
6:56 PM 45.0 °F 39.7 °F 10.0 °F 24% 30.53 in 10.0 mi SW 10.4 mph - N/A   Clear
7:56 PM 45.0 °F 40.6 °F 10.9 °F 25% 30.54 in 10.0 mi WNW 8.1 mph - N/A   Clear
8:56 PM 44.1 °F 38.6 °F 12.0 °F 27% 30.55 in 10.0 mi West 10.4 mph - N/A   Clear
9:56 PM 43.0 °F 37.2 °F 10.9 °F 27% 30.56 in 10.0 mi SW 10.4 mph - N/A   Clear
10:56 PM 41.0 °F 37.1 °F 12.0 °F 31% 30.57 in 10.0 mi SW 5.8 mph - N/A   Clear
11:56 PM 34.0 °F - 18.0 °F 52% 30.59 in 10.0 mi Calm Calm - N/A   Clear